Weather History for Lee's Summit, MO

Change the Weather History Date:

Wednesday, November 21, 2012

  Actual Average (KMKC) Record (KMKC)
Temperature  
Mean Temperature 58 °F -  
Max Temperature 70 °F 51 °F 73 °F (2010)
Min Temperature 45 °F 34 °F 18 °F (2000)
Degree Days  
Heating Degree Days 8    
Growing Degree Days 8 (Base 50)    
Moisture  
Dew Point 39 °F    
Average Humidity 55    
Maximum Humidity 82    
Minimum Humidity 31    
Precipitation  
Precipitation 0.00 in - - ()
Sea Level Pressure  
Sea Level Pressure 30.14 in    
Wind  
Wind Speed 8 mph (South)    
Max Wind Speed 18 mph    
Max Gust Speed 23 mph    
Visibility 10 miles    
Events      
Averages and records for this station are not official NWS values.
T = Trace of Precipitation, MM = Missing Value Source: NWS Daily Summary

Daily Weather History Graph

Daily Weather History Graph

Search for Another Location

Airport:

Trip Planner

Search our weather history database for the weather conditions in past years. The results will help you decide how hot, cold, wet, or windy it might be!

Date:

Astronomy

Nov. 21, 2012 Rise Set
Actual Time 7:07 AM CST 4:59 PM CST
Civil Twilight 6:38 AM CST 5:28 PM CST
Nautical Twilight 6:05 AM CST 6:00 PM CST
Astronomical Twilight 5:34 AM CST 6:32 PM CST
Moon 1:13 PM CST (11/21) 12:30 AM CST (11/21)
Length of Visible Light 10h 49m
Length of Day
9h 51m
First Quarter, 62% of the Moon is Illuminated
Nov 21
First Quarter
Nov 28
Full
Dec 6
Last Quarter
Dec 13
New
Dec 19
First Quarter

Hourly Weather History & Observations

Time (CST) Temp. Windchill Dew Point Humidity Pressure Visibility Wind Dir Wind Speed Gust Speed Precip Events Conditions
12:53 AM 50.0 °F - 39.9 °F 68% 30.22 in 10.0 mi South 4.6 mph - N/A   Clear
1:53 AM 48.9 °F - 39.9 °F 71% 30.21 in 10.0 mi South 5.8 mph - N/A   Clear
2:53 AM 45.0 °F 42.6 °F 39.0 °F 80% 30.21 in 9.0 mi SSW 4.6 mph - N/A   Clear
3:53 AM 46.9 °F - 39.9 °F 77% 30.21 in 10.0 mi SSW 5.8 mph - N/A   Clear
4:53 AM 45.0 °F 41.2 °F 39.9 °F 82% 30.21 in 10.0 mi SSW 6.9 mph - N/A   Clear
5:53 AM 46.9 °F - 39.9 °F 77% 30.20 in 10.0 mi SSW 6.9 mph - N/A   Clear
6:53 AM 46.9 °F - 39.9 °F 77% 30.22 in 10.0 mi SSW 8.1 mph - N/A   Clear
7:53 AM 48.0 °F - 41.0 °F 77% 30.22 in 10.0 mi SSW 9.2 mph - N/A   Clear
8:53 AM 52.0 °F - 43.0 °F 71% 30.22 in 10.0 mi SSW 9.2 mph - N/A   Clear
9:53 AM 57.0 °F - 43.0 °F 59% 30.22 in 10.0 mi SSW 11.5 mph - N/A   Clear
10:53 AM 63.0 °F - 41.0 °F 45% 30.21 in 10.0 mi SSW 12.7 mph - N/A   Clear
11:53 AM 66.0 °F - 37.9 °F 36% 30.17 in 10.0 mi SSW 13.8 mph 21.9 mph N/A   Clear
12:53 PM 69.1 °F - 37.0 °F 31% 30.14 in 10.0 mi SW 18.4 mph 23.0 mph N/A   Clear
1:53 PM 70.0 °F - 37.9 °F 31% 30.12 in 10.0 mi SSW 12.7 mph 19.6 mph N/A   Clear
2:53 PM 70.0 °F - 37.9 °F 31% 30.09 in 10.0 mi South 10.4 mph - N/A   Clear
3:53 PM 69.1 °F - 37.0 °F 31% 30.08 in 10.0 mi South 10.4 mph 18.4 mph N/A   Clear
4:53 PM 66.0 °F - 37.0 °F 34% 30.07 in 10.0 mi South 9.2 mph - N/A   Clear
5:53 PM 62.1 °F - 37.9 °F 41% 30.07 in 10.0 mi South 9.2 mph - N/A   Clear
6:53 PM 61.0 °F - 39.0 °F 44% 30.06 in 10.0 mi South 11.5 mph - N/A   Clear
7:53 PM 59.0 °F - 37.9 °F 46% 30.05 in 10.0 mi South 12.7 mph - N/A   Clear
8:53 PM 57.0 °F - 37.9 °F 49% 30.04 in 10.0 mi South 11.5 mph - N/A   Clear
9:53 PM 55.9 °F - 37.0 °F 49% 30.03 in 10.0 mi South 11.5 mph 18.4 mph N/A   Clear
10:53 PM 55.0 °F - 37.0 °F 51% 30.01 in 10.0 mi South 13.8 mph - N/A   Clear
11:53 PM 54.0 °F - 36.0 °F 51% 29.99 in 10.0 mi South 11.5 mph - N/A   Clear